TIME,DELAY(SENSOR),PRES,OXYGEN,RAWTEMP,T(OPTODE),TCPHASE,FLUOR,BETA(BETA700),BETA(BETA412),BETA(BETA440),CDOM,C(CSC),ED(ED412.20),ED(ED444.00),ED(ED489.60),ED(ED554.30),LU(LU412.10),LU(LU443.90),LU(LU489.70),LU(LU554.70),COMP,TILTX,TILTY,CHECK
1344223233,5808,894.5300292968750000,34.2411193847656250,558.5809936523438000,4.5298647880554200,56.3892707824707000,55,100,101,78,83,15570,0,0,0,0,2147124361,2147774957,2147572754,2147571227,689,3,13,589
1344226829,5809,975.0900268554688000,39.7469711303710940,566.8944702148438000,4.2720241546630860,55.6187286376953100,55,100,101,78,83,15569,0,0,0,0,2147124397,2147779309,2147571035,2147569782,804,3,13,27384
1344230429,5810,1002.6500244140625000,38.6788902282714840,568.9237060546875000,4.2090029716491700,55.8046607971191400,56,104,101,78,81,15564,0,0,0,0,2147124918,2147771419,2147580251,2147570715,2570,3,13,25837
1344234029,5754,1009.1699829101562000,38.8101196289062500,570.1163940429688000,4.1719441413879395,55.7971305847168000,55,100,100,77,83,15560,0,0,0,0,2147122267,2147775698,2147577398,2147574144,3496,3,13,33402
1344237629,5808,1007.5200195312500000,38.7426910400390600,570.4202880859375000,4.1624979972839355,55.8105201721191400,55,100,100,78,83,15565,0,0,0,0,2147124516,2147777837,2147576054,2147568978,3370,3,13,3935
1344241229,5808,1011.5300292968750000,38.4790611267089840,570.3776245117188000,4.1638278961181640,55.8508186340332000,55,97,101,78,83,15564,0,0,0,0,2147125458,2147777170,2147572836,2147567378,525,3,13,37196
1344244829,5811,1010.9899902343750000,38.7704391479492200,570.7974243164062000,4.1507778167724610,55.8096885681152340,55,99,100,78,82,15563,0,0,0,0,2147125385,2147776740,2147569929,2147570651,198,3,13,24222
1344248429,5810,1005.4500122070312000,39.0576782226562500,572.2816162109375000,4.1046371459960940,55.7789611816406250,56,98,101,78,83,15559,0,0,0,0,2147124562,2147769938,2147575012,2147574445,95,3,13,6930
1344252029,5810,1015.9500122070312000,39.1679382324218750,572.2229003906250000,4.1064620018005370,55.7651710510253900,54,100,100,79,81,15562,0,0,0,0,2147122276,2147774326,2147575899,2147573184,65,3,13,49431
1344255629,5808,1018.2199707031250000,38.5049781799316400,570.9511718750000000,4.1459999084472660,55.8486595153808600,55,96,101,78,83,15560,0,0,0,0,2147123300,2147772736,2147577380,2147573257,207,3,13,37859
1344259229,5809,1020.0100097656250000,38.6747283935546900,570.8040161132812000,4.1505742073059080,55.8257102966308600,56,99,101,78,82,15559,0,0,0,0,2147123986,2147773778,2147569929,2147572891,495,3,13,27434
1344262829,5811,1014.6599731445312000,38.3150482177734400,571.1787719726562000,4.1389241218566895,55.8851089477539060,54,98,103,78,83,15559,0,0,0,0,2147121472,2147775222,2147571757,2147570953,685,3,13,52869
1344266429,5810,1014.7199707031250000,38.5976409912109400,571.9967041015625000,4.1134948730468750,55.8445587158203100,55,99,108,78,82,15559,0,0,0,0,2147123309,2147774820,2147577910,2147574208,273,3,13,55488
1344270029,5753,1014.7299804687500000,38.6382293701171900,571.7985229492188000,4.1196579933166500,55.8418884277343750,54,100,102,78,82,15558,0,0,0,0,2147122203,2147777261,2147571913,2147571108,136,3,13,13717
1344273629,5809,1015.8599853515625000,38.4559898376464840,572.2056884765625000,4.1069951057434080,55.8738517761230500,54,102,100,79,84,15561,0,0,0,0,2147123693,2147773504,2147574793,2147570852,689,3,13,54997
1344277229,5808,1018.8900146484375000,38.4552993774414060,572.1970214843750000,4.1072669029235840,55.8688011169433600,55,98,102,77,82,15561,0,0,0,0,2147121316,2147774226,2147577179,2147573147,313,3,13,13014
1344280829,5809,1018.9799804687500000,38.5908203125000000,572.1384277343750000,4.1090888977050780,55.8529281616210940,56,100,100,77,82,15556,0,0,0,0,2147124288,2147778944,2147574454,2147568822,516,3,13,52036
1344284429,5810,1022.2299804687500000,38.3024787902832000,572.2288818359375000,4.1062769889831540,55.8977394104003900,55,99,100,78,83,15557,0,0,0,0,2147123355,2147770596,2147575652,2147566427,413,2,13,49717
1344288029,5812,1013.7800292968750000,39.3584899902343750,572.9688720703125000,4.0832648277282715,55.7400817871093750,55,97,100,78,83,15555,0,0,0,0,2147119689,2147773595,2147577490,2147568475,2832,3,13,35746
1344291629,5812,1011.4199829101562000,40.5061111450195300,573.0123291015625000,4.0819129943847660,55.5750312805175800,54,101,101,78,82,15553,0,0,0,0,2147124489,2147775222,2147573010,2147570267,97,3,13,44527
1344295229,5809,1015.5499877929688000,40.0574493408203100,572.9522705078125000,4.0837779045104980,55.6345596313476560,55,100,101,79,84,15548,0,0,0,0,2147122322,2147777700,2147576621,2147572635,160,3,13,1541
1344298829,5808,1014.5399780273438000,39.1709289550781250,572.9663085937500000,4.0833439826965330,55.7740097045898440,56,103,99,78,84,15548,0,0,0,0,2147123437,2147773238,2147575360,2147569910,3125,3,13,54251
1344302429,5811,1019.6799926757812000,39.0529518127441400,572.6224975585938000,4.0940361022949220,55.7887916564941400,55,124,101,77,84,15528,0,0,0,0,2147121819,2147779812,2147577197,2147572132,6,3,13,19456
1344306029,5807,1020.4199829101562000,38.5190505981445300,572.2598876953125000,4.1053118705749510,55.8607902526855500,54,97,102,78,84,15551,0,0,0,0,2147121709,2147773211,2147578514,2147572525,227,3,13,53404
1344309629,5811,1023.2199707031250000,39.0863494873046900,572.6633911132812000,4.0927658081054690,55.7817497253418000,55,101,100,79,82,15553,0,0,0,0,2147122285,2147771968,2147573056,2147570267,3495,3,13,58193
1344313229,5812,1024.2600097656250000,38.4548912048339840,571.8615112304688000,4.1177010536193850,55.8663482666015600,55,99,101,77,83,15544,0,0,0,0,2147123081,2147772342,2147571812,2147572745,92,3,12,60481
1344316829,5812,1024.6800537109375000,38.2597198486328100,572.0913696289062000,4.1105518341064450,55.8972892761230500,56,97,101,77,84,15544,0,0,0,0,2147122688,2147776548,2147572955,2147573824,46,3,13,52051
1344320429,5810,1026.1800537109375000,38.6625518798828100,571.8917846679688000,4.1167559623718260,55.8326301574707000,57,97,100,77,84,15544,0,0,0,0,2147121133,2147777142,2147578861,2147571776,2905,3,13,59318
1344324029,5811,1027.2800292968750000,38.5349693298339840,572.3062744140625000,4.1038699150085450,55.8620185852050800,55,98,102,77,83,15540,0,0,0,0,2147123501,2147772160,2147572306,2147572964,62,3,13,7041
1344327629,5809,1025.9499511718750000,38.7220306396484400,572.0449829101562000,4.1119918823242190,55.8299102783203100,55,99,100,77,84,15542,0,0,0,0,2147125220,2147770386,2147577728,2147569938,3333,3,13,5755
1344331229,5813,1027.3900146484375000,39.1407814025878900,571.5253906250000000,4.1281490325927730,55.7573699951171900,56,100,101,78,82,15540,0,0,0,0,2147122139,2147776018,2147576292,2147569728,3255,3,13,9093
1344334829,5810,1023.5800170898438000,38.3779296875000000,572.3776245117188000,4.1016540527343750,55.8821907043457000,55,102,99,78,84,15539,0,0,0,0,2147123776,2147774902,2147574153,2147570011,216,3,13,25859
1344338429,5810,1025.3000488281250000,39.2258987426757800,572.5017089843750000,4.0977921485900880,55.7595100402832000,55,98,101,78,84,15542,0,0,0,0,2147122797,2147776539,2147576018,2147568374,96,3,13,25669
1344342029,5810,1021.2199707031250000,38.4782104492187500,572.4636230468750000,4.0989761352539060,55.8737411499023440,55,97,101,78,83,15508,0,0,0,0,2147119981,2147771986,2147573120,2147575652,1387,3,13,48214
1344345629,5812,1024.6199951171875000,38.9820899963378900,572.5399780273438000,4.0966010093688965,55.7960014343261700,56,100,101,78,84,15510,0,0,0,0,2147121216,2147769545,2147571273,2147571949,14,3,13,21090
1344349229,5809,1033.2199707031250000,38.7110214233398440,572.1804809570312000,4.1077799797058105,55.8344688415527340,55,100,102,77,83,15496,0,0,0,0,2147121737,2147773403,2147571693,2147569206,3589,3,13,4268
1344352829,5810,1029.6700439453125000,39.0797691345214840,571.9649047851562000,4.1144847869873050,55.7760887145996100,55,98,101,77,83,15498,0,0,0,0,2147120850,2147771044,2147576923,2147571364,3331,3,13,42391
1344356429,5807,1032.7399902343750000,38.7274284362793000,571.8782958984375000,4.1171760559082030,55.8259315490722660,54,98,104,78,84,15484,0,0,0,0,2147121316,2147774710,2147570066,2147571922,273,3,13,20620
1344360029,5809,1025.1999511718750000,38.5554389953613300,572.3983154296875000,4.1010088920593260,55.8563308715820300,54,96,101,77,84,15478,0,0,0,0,2147121636,2147774555,2147575744,2147570377,285,3,13,9545
1344363629,5810,1023.5599975585938000,39.5382995605468750,572.6353759765625000,4.0936360359191895,55.7143592834472660,55,100,101,78,82,15490,0,0,0,0,2147120685,2147774025,2147574336,2147572361,3436,3,13,31792
1344367229,5809,1025.5200195312500000,39.5612487792968750,572.6094970703125000,4.0944399833679200,55.7080688476562500,55,98,101,78,83,15491,0,0,0,0,2147121261,2147775433,2147575451,2147571894,378,3,13,51094
1344367555,5808,1026.3900146484375000,39.4708595275878900,572.5327148437500000,4.0968298912048340,55.7186393737793000,56,98,103,77,84,15489,0,0,0,0,2147123392,2147774180,2147576438,2147570029,309,3,13,53815
